DO8TBO-15 Weather Reports


Display with metric or nautical units.
time (UTC)temp
F
wind
direction
speed
MPH
gust
MPH
rain 1hr
in
rain 24hr
in
rain mn
in
humidity
%
barometer
mb
20260505200529 56 0.0 0.0 0.01 0.34 0.34 1006.4
20260505195525 56 0.0 0.0 0.01 0.34 0.34 1006.4
20260505194521 56 0.0 0.0 0.00 0.33 0.33 1006.4
20260505193518 56 0.0 0.0 0.00 0.33 0.33 1006.4
20260505192614 56 0.0 0.0 0.00 0.33 0.33 1006.4
20260505191610 56 0.0 0.0 0.01 0.33 0.33 1006.4
20260505190606 56 0.0 0.0 0.01 0.33 0.33 1006.3
20260505185602 56 0.0 0.0 0.01 0.33 0.33 1006.3
20260505184559 56 0.0 0.0 0.01 0.33 0.33 1006.3
20260505183555 56 0.0 1.0 0.02 0.33 0.33 1006.2
20260505182551 56 0.0 2.0 0.04 0.33 0.33 1006.0
20260505181547 56 0.0 0.0 0.05 0.32 0.32 1006.0
20260505180544 56 0.0 0.0 0.13 0.32 0.32 1006.0
20260505175540 56 0.0 0.0 0.18 0.32 0.32 1005.8
20260505174537 56 1 2.0 4.0 0.27 0.32 0.32 1005.6
20260505173533 56 0 1.0 4.0 0.27 0.31 0.31 1005.8
20260505172558 57 313 1.0 5.0 0.26 0.30 0.30 1006.0
20260505171555 57 228 4.0 9.0 0.25 0.27 0.27 1006.1
20260505170551 58 180 5.0 11.0 0.17 0.19 0.19 1006.0
20260505165548 59 257 5.0 9.0 0.12 0.14 0.14 1005.7
20260505164543 60 237 3.0 9.0 0.02 0.05 0.05 1005.6
20260505163540 61 266 2.0 9.0 0.01 0.04 0.04 1005.3
20260505162536 62 275 1.0 4.0 0.01 0.04 0.04 1004.9
20260505161532 62 331 1.0 4.0 0.00 0.02 0.02 1004.9
20260505160528 63 45 2.0 4.0 0.00 0.02 0.02 1005.0
20260505152613 66 195 2.0 6.0 0.00 0.02 0.02 1005.4
20260505151610 69 187 3.0 5.0 0.00 0.02 0.02 1005.1
20260505150606 70 45 2.0 6.0 0.00 0.02 0.02 1004.8
20260505140543 76 315 2.0 4.0 0.00 0.02 0.02 1005.2
20260505124613 80 326 3.0 6.0 0.00 0.02 0.02 1005.9
20260505123610 79 332 1.0 5.0 0.00 0.02 0.02 1006.1
20260505122607 77 31 1.0 5.0 0.00 0.02 0.02 1006.4
20260505121602 77 27 2.0 6.0 0.00 0.02 0.02 1006.4
20260505120558 79 0.0 0.0 0.00 0.02 0.02 1006.5
20260505115555 78 0 1.0 4.0 0.00 0.02 0.02 1006.6
20260505114551 77 315 0.0 4.0 0.00 0.02 0.02 1006.6
20260505113547 78 320 1.0 4.0 0.00 0.02 0.02 1006.7
20260505112544 78 325 1.0 4.0 0.00 0.02 0.02 1006.8
20260505111540 78 0.0 4.0 0.00 0.02 0.02 1007.0
20260505110535 78 90 1.0 4.0 0.00 0.02 0.02 1007.1
20260505101546 75 90 0.0 2.0 0.00 0.02 0.02 1007.6
20260505100543 74 0.0 2.0 0.00 0.02 0.02 1007.8
20260505095539 74 23 0.0 3.0 0.00 0.02 0.02 1007.9
20260505094535 72 9 2.0 5.0 0.00 0.02 0.02 1007.9
20260505093532 72 330 1.0 4.0 0.00 0.02 0.02 1008.0
20260505092528 71 22 1.0 4.0 0.00 0.02 0.02 1008.2
20260505091524 69 23 1.0 4.0 0.00 0.02 0.02 1008.3
20260505090520 69 0 2.0 5.0 0.00 0.02 0.02 1008.3
20260505085516 68 346 2.0 5.0 0.00 0.02 0.02 1008.4
20260505084613 66 11 0.0 4.0 0.00 0.02 0.02 1008.5
20260505083609 64 23 2.0 5.0 0.00 0.02 0.02 1008.6
20260505082605 63 0 0.0 4.0 0.00 0.02 0.02 1008.8
20260505081601 63 1 1.0 5.0 0.00 0.02 0.02 1008.8
20260505080558 62 45 2.0 4.0 0.00 0.02 0.02 1008.9
20260505074550 62 325 0.0 3.0 0.00 0.02 0.02 1009.0
20260505073546 62 327 1.0 4.0 0.00 0.02 0.02 1008.9
20260505072543 61 1 1.0 4.0 0.00 0.02 0.02 1009.0
20260505071539 61 332 0.0 3.0 0.00 0.02 0.02 1009.0
20260505070535 60 293 2.0 3.0 0.00 0.02 0.02 1009.0
20260505065532 60 343 1.0 3.0 0.00 0.02 0.02 1008.9
20260505064558 60 334 1.0 4.0 0.00 0.02 0.02 1009.0
20260505063555 59 350 0.0 4.0 0.00 0.02 0.02 1008.9
20260505062551 59 345 1.0 4.0 0.00 0.02 0.02 1008.9
20260505061547 58 315 0.0 5.0 0.00 0.02 0.02 1008.9
20260505060543 58 0.0 0.0 0.00 0.02 0.02 1008.8
20260505055540 58 0.0 0.0 0.00 0.02 0.02 1008.9
20260505054536 57 0.0 0.0 0.00 0.02 0.02 1008.9
20260505053532 57 0.0 0.0 0.00 0.02 0.02 1008.9
20260505052528 57 0.0 0.0 0.00 0.02 0.02 1008.8
20260505051525 56 0.0 0.0 0.00 0.02 0.02 1008.9
20260505050522 56 0.0 0.0 0.00 0.02 0.02 1008.9
20260505041604 56 347 1.0 3.0 0.01 0.02 0.02 1008.9
20260505040600 56 0.0 1.0 0.01 0.02 0.02 1009.0
20260505035556 56 346 1.0 4.0 0.01 0.02 0.02 1009.0
20260505034552 56 345 1.0 4.0 0.01 0.02 0.02 1009.0
20260505033548 56 0.0 3.0 0.01 0.02 0.02 1009.2
20260505032544 56 0.0 0.0 0.00 0.01 0.01 1009.3
20260505031541 56 315 0.0 3.0 0.00 0.01 0.01 1009.4
20260505030537 57 0 1.0 2.0 0.00 0.01 0.01 1009.5
20260505025532 57 0.0 2.0 0.00 0.01 0.01 1009.6
20260505024529 56 0.0 2.0 0.00 0.01 0.01 1009.7
20260505023525 56 0.0 2.0 0.01 0.01 0.01 1009.7
20260505022521 56 0.0 2.0 0.01 0.01 0.01 1009.8
20260505021518 56 0.0 2.0 0.01 0.01 0.01 1010.1
20260505020614 56 0.0 0.0 0.01 0.01 0.01 1010.4
20260505015610 57 160 1.0 4.0 0.01 0.01 0.01 1010.5
20260505014606 57 0.0 0.0 0.01 0.01 0.01 1010.6
20260505013602 57 0.0 0.0 0.00 0.00 0.00 1010.6
20260505012559 58 0.0 0.0 0.00 0.00 0.00 1010.6
20260505011555 58 0.0 0.0 0.00 0.00 0.00 1010.8
20260505010551 58 0.0 0.0 0.00 0.00 0.00 1010.8
20260505005548 59 0.0 0.0 0.00 0.00 0.00 1010.9
20260505004543 59 0.0 0.0 0.00 0.00 0.00 1011.0
20260505003540 59 0.0 0.0 0.00 0.00 0.00 1010.9
20260505002536 59 315 0.0 2.0 0.00 0.00 0.00 1010.8
20260505001532 59 0.0 0.0 0.00 0.00 0.00 1011.0
20260505000529 60 0.0 0.0 0.00 0.00 0.00 1010.9
20260504235525 60 0.0 2.0 0.00 0.00 0.00 1010.9
20260504234521 60 280 1.0 3.0 0.00 0.00 0.00 1011.0
20260504233518 60 7 1.0 4.0 0.00 0.00 0.00 1011.0
20260504232614 60 332 2.0 5.0 0.00 0.00 0.00 1011.0
20260504231611 60 347 1.0 4.0 0.00 0.00 0.00 1011.1
20260504230606 60 0.0 1.0 0.00 0.00 0.00 1011.2
20260504225603 60 357 1.0 4.0 0.00 0.00 0.00 1011.3
20260504224559 60 13 1.0 4.0 0.00 0.00 0.00 1011.3
20260504223555 61 346 1.0 4.0 0.00 0.00 0.00 1011.6
20260504222552 61 336 0.0 3.0 0.00 0.00 0.00 1011.6
20260504221547 61 351 1.0 4.0 0.00 0.00 0.00 1011.6
20260504220544 62 0 2.0 4.0 0.00 0.00 0.00 1011.8
20260504215540 62 327 1.0 4.0 0.00 0.00 0.00 1011.7
20260504214536 62 347 1.0 3.0 0.00 0.00 0.00 1011.8
20260504213533 62 0.0 0.0 0.00 0.00 0.00 1011.9
20260504212529 62 0.0 1.0 0.00 0.00 0.00 1012.0
20260504211525 62 315 0.0 2.0 0.00 0.00 0.00 1012.0
20260504210521 62 0.0 2.0 0.00 0.00 0.00 1011.8
20260504205518 63 11 0.0 2.0 0.00 0.00 0.00 1011.7
20260504204614 63 338 1.0 3.0 0.00 0.00 0.00 1011.6
20260504203611 63 0 0.0 3.0 0.00 0.00 0.00 1011.6
20260504202607 63 0 1.0 4.0 0.00 0.00 0.00 1011.7
20260504201603 63 0.0 3.0 0.00 0.00 0.00 1011.7